Probability
0 0 0 0 0 0 0 0 0 0 0 0 0 0 0 0 0 0 0 0 0 0 0 0 0 0 0 0 6 6 3 3 0 0 0 0 0 0 0 0 0 3 3
0 0 0 0 0 0 0 0 0 0 0 0 0 0 0 0 0 0 0 0 0 0 0 0 0 0 3 0 3 3 3 3 0 0 0 0 0 0 0 0 0 0 3
0 0 0 0 0 0 0 0 0 0 0 0 0 0 0 0 0 0 0 0 0 0 0 0 0 0 3 0 0 3 3 3 0 0 0 0 0 0 0 0 0 0 0
0 0 0 0 0 0 0 0 0 0 0 0 0 0 0 0 0 0 0 0 0 0 0 0 3 3 3 0 3 6 3 3 0 0 0 0 0 0 0 0 0 0 0
0 0 0 0 0 0 0 0 0 0 0 0 0 0 0 0 0 0 0 0 0 0 0 0 0 0 3 3 3 3 3 3 0 0 0 0 0 0 0 0 0 0 0
0 0 0 0 0 0 0 0 0 0 0 0 0 0 0 0 0 0 0 0 0 0 0 0 0 0 0 0 3 3 3 0 0 0 0 0 0 0 0 0 0 0 0
0 0 0 0 0 0 0 0 0 0 0 0 0 0 0 0 0 0 0 0 0 0 0 0 0 0 0 0 3 3 3 0 0 0 0 0 0 0 0 0 0 0 0
0 0 0 0 0 0 0 0 0 0 0 0 0 0 0 0 0 0 0 0 0 0 0 0 0 0 0 0 0 0 3 0 0 0 0 0 0 0 0 0 0 0 0
0 0 0 0 0 0 0 0 0 0 0 0 0 0 0 0 0 0 0 0 0 0 0 0 0 0 0 0 0 0 0 0 0 0 0 0 0 0 0 0 0 0 0
0 0 0 0 0 0 0 0 0 0 0 0 0 0 0 0 0 0 0 0 0 0 0 0 0 0 0 0 0 0 0 0 0 0 0 0 0 0 0 0 0 0 0
0 0 0 0 0 0 0 0 0 0 0 0 0 0 0 0 0 0 0 0 0 0 0 0 0 0 0 0 0 0 0 0 0 0 0 0 0 0 0 0 0 0 0
0 0 0 0 0 0 0 0 0 0 0 0 0 0 0 0 0 0 0 0 0 0 0 0 0 0 0 0 0 0 0 0 0 0 0 0 0 0 0 0 0 0 0
0 0 0 0 0 0 0 0 0 0 0 0 0 0 0 0 0 0 0 0 0 0 0 0 0 0 0 0 0 0 0 0 0 0 0 0 0 0 0 0 0 0 0
0 0 0 0 0 0 0 0 0 0 0 0 0 0 0 0 0 0 0 0 0 0 0 0 0 0 0 0 0 0 0 0 0 0 0 0 0 0 0 0 0 0 0
0 0 0 0 0 0 0 0 0 0 0 0 0 0 0 0 0 0 0 0 0 0 0 0 0 0 0 0 0 0 0 0 0 0 0 0 0 0 0 0 0 0 0
0 0 0 0 0 0 0 0 0 0 0 0 0 0 0 0 0 0 0 0 0 0 0 0 0 0 0 0 0 0 0 0 0 0 0 0 0 0 0 0 0 0 0
0 0 0 0 0 0 0 0 0 0 0 0 0 0 0 0 0 0 0 0 0 0 0 0 0 0 0 0 0 0 0 0 0 0 0 0 0 0 0 0 0 0 0
0 0 0 0 0 0 0 0 0 0 0 0 0 0 0 0 0 0 0 0 0 0 0 0 0 0 0 0 0 0 0 0 0 0 0 0 0 0 0 0 0 0 0
0 0 0 0 0 0 0 0 0 0 0 0 0 0 0 0 0 0 0 0 0 0 0 0 0 0 0 0 0 0 0 0 0 0 0 0 0 0 0 0 0 0 0
0 0 0 0 0 0 0 0 0 0 0 0 0 0 0 0 0 0 0 0 0 0 0 0 0 0 0 0 0 0 0 0 0 0 0 0 0 0 0 0 0 0 0
0 0 0 0 0 0 0 0 0 0 0 0 0 0 0 0 0 0 0 0 0 0 0 0 0 0 0 0 0 0 0 0 0 0 0 0 0 0 0 0 0 0 0
0 0 0 0 0 0 0 0 0 0 0 0 0 0 0 0 0 0 0 0 0 0 0 0 0 0 0 0 0 0 0 0 0 0 0 0 0 0 0 0 0 0 0
0 0 0 0 0 0 0 0 0 0 0 0 0 0 0 0 0 0 0 0 0 0 0 0 0 0 0 0 0 0 0 0 0 0 0 0 0 0 0 0 0 0 0
0 0 0 0 0 0 0 0 0 0 0 0 0 0 0 0 0 0 0 0 0 0 0 0 0 0 0 0 0 0 0 0 0 0 0 0 0 0 0 0 0 0 0
0 0 0 0 0 0 0 0 0 0 0 0 0 0 0 0 0 0 0 0 0 0 0 0 0 0 0 0 0 0 0 0 0 0 0 0 0 0 0 0 0 0 0
0 0 0 0 0 0 0 0 0 0 0 0 0 0 0 0 0 0 0 0 0 0 0 0 0 0 0 0 0 0 0 0 0 0 0 0 0 0 0 0 0 0 0
Height
5771 5773 5775 5777 5779 5781 5783 5785 5787 5789 5791 5792 5794 5796 5797 5799 5801 5803 5804 5806 5807 5809 5810 5812 5813 5815 5816 5817 5818 5819 5821 5822 5823 5824 5825 5825 5826 5826 5827 5827 5828 5828 5829
5762 5764 5766 5769 5771 5773 5775 5777 5779 5781 5783 5785 5786 5788 5790 5792 5793 5795 5797 5798 5800 5802 5803 5805 5806 5807 5809 5810 5812 5813 5814 5816 5817 5818 5819 5820 5820 5821 5821 5822 5823 5823 5824
5752 5754 5757 5759 5761 5763 5766 5768 5770 5772 5774 5776 5778 5779 5781 5783 5785 5787 5788 5790 5792 5794 5795 5797 5799 5800 5802 5803 5804 5806 5807 5809 5810 5811 5812 5813 5814 5815 5815 5816 5817 5818 5818
5741 5744 5746 5748 5751 5753 5756 5758 5760 5763 5765 5767 5769 5770 5772 5774 5776 5778 5779 5781 5783 5785 5787 5788 5790 5792 5793 5795 5796 5798 5799 5801 5802 5804 5805 5806 5807 5808 5809 5810 5811 5811 5812
5730 5732 5735 5737 5740 5742 5745 5748 5750 5753 5755 5757 5759 5761 5762 5764 5766 5768 5770 5772 5773 5775 5777 5779 5781 5782 5784 5786 5787 5789 5791 5792 5794 5796 5797 5798 5800 5801 5802 5803 5803 5804 5805
5718 5721 5723 5726 5728 5731 5734 5737 5739 5742 5744 5746 5749 5751 5752 5754 5756 5758 5760 5761 5763 5765 5767 5768 5770 5772 5774 5776 5777 5779 5781 5783 5785 5786 5788 5790 5791 5793 5794 5795 5796 5797 5798
5706 5708 5711 5714 5716 5719 5722 5725 5728 5730 5733 5735 5737 5740 5742 5743 5745 5747 5749 5750 5752 5753 5755 5757 5759 5761 5763 5765 5767 5769 5771 5773 5775 5777 5779 5780 5782 5784 5785 5786 5788 5789 5790
5693 5696 5698 5701 5704 5707 5710 5712 5715 5718 5721 5723 5725 5728 5730 5733 5734 5736 5737 5739 5740 5742 5743 5745 5747 5749 5751 5753 5755 5757 5759 5761 5764 5766 5768 5770 5772 5774 5776 5777 5778 5779 5781
5679 5682 5685 5688 5691 5694 5697 5699 5702 5705 5708 5710 5712 5715 5717 5720 5722 5724 5725 5727 5728 5729 5731 5732 5734 5736 5738 5740 5742 5744 5747 5749 5751 5754 5756 5759 5761 5763 5765 5767 5768 5769 5771
5666 5668 5671 5674 5677 5680 5683 5685 5688 5691 5694 5696 5699 5701 5703 5705 5708 5711 5713 5713 5714 5716 5717 5718 5720 5722 5724 5726 5728 5731 5733 5736 5738 5741 5744 5746 5749 5751 5754 5755 5757 5758 5760
5652 5654 5657 5659 5662 5665 5668 5671 5674 5677 5680 5682 5685 5687 5689 5691 5693 5695 5698 5700 5700 5701 5702 5704 5705 5707 5709 5711 5714 5716 5719 5721 5724 5727 5730 5733 5735 5738 5741 5743 5745 5746 5748
5638 5640 5643 5645 5648 5651 5654 5657 5660 5663 5665 5668 5670 5672 5674 5676 5678 5679 5682 5685 5686 5687 5687 5688 5690 5692 5694 5696 5698 5701 5703 5706 5709 5712 5715 5718 5721 5724 5727 5730 5732 5734 5736
5624 5626 5628 5631 5633 5636 5639 5641 5644 5647 5650 5652 5654 5656 5658 5660 5662 5663 5665 5667 5669 5671 5672 5673 5674 5676 5678 5680 5682 5685 5687 5690 5693 5696 5700 5703 5706 5710 5713 5716 5718 5720 5722
5610 5612 5614 5616 5618 5621 5623 5626 5629 5632 5634 5636 5638 5640 5642 5644 5645 5647 5649 5651 5653 5656 5657 5658 5659 5660 5662 5664 5666 5668 5671 5673 5676 5680 5683 5687 5691 5694 5697 5701 5704 5706 5708
5595 5597 5599 5601 5603 5605 5607 5609 5612 5615 5618 5620 5622 5624 5626 5628 5629 5631 5633 5634 5637 5639 5642 5643 5644 5644 5646 5648 5649 5651 5654 5657 5660 5663 5666 5670 5674 5678 5681 5685 5688 5691 5693
5580 5582 5584 5585 5587 5589 5591 5593 5596 5598 5601 5603 5606 5608 5610 5612 5614 5616 5617 5618 5620 5622 5625 5628 5628 5629 5630 5632 5633 5635 5638 5640 5643 5646 5650 5653 5657 5661 5665 5668 5672 5675 5679
5565 5567 5568 5570 5571 5573 5574 5576 5579 5582 5585 5587 5590 5592 5595 5596 5598 5600 5601 5603 5604 5605 5608 5611 5612 5613 5614 5616 5618 5619 5622 5624 5627 5630 5633 5637 5641 5645 5649 5652 5656 5659 5663
5550 5551 5552 5554 5555 5557 5558 5560 5563 5565 5568 5571 5573 5576 5579 5580 5583 5584 5586 5587 5588 5590 5591 5594 5596 5597 5598 5600 5602 5604 5606 5608 5610 5613 5617 5621 5625 5629 5632 5636 5640 5643 5646
5534 5535 5537 5538 5540 5541 5543 5544 5547 5549 5551 5554 5557 5559 5562 5564 5566 5568 5569 5571 5572 5573 5575 5577 5580 5581 5583 5584 5586 5588 5590 5592 5594 5597 5600 5604 5608 5612 5616 5620 5623 5627 5630
5518 5520 5521 5523 5524 5525 5527 5528 5530 5532 5535 5537 5540 5543 5546 5548 5550 5551 5553 5555 5556 5557 5558 5560 5563 5565 5567 5569 5570 5572 5574 5576 5579 5581 5584 5588 5592 5596 5600 5603 5607 5610 5613
5503 5504 5505 5507 5508 5509 5511 5512 5514 5516 5518 5521 5524 5527 5529 5531 5533 5535 5536 5538 5540 5541 5542 5544 5547 5549 5552 5553 5554 5556 5558 5560 5563 5565 5568 5572 5576 5580 5583 5586 5589 5593 5595
5488 5489 5490 5491 5493 5494 5495 5496 5498 5500 5503 5505 5508 5510 5513 5515 5517 5518 5520 5522 5523 5525 5527 5528 5531 5534 5536 5537 5538 5540 5542 5545 5549 5551 5552 5556 5559 5563 5566 5569 5572 5575 5578
5473 5474 5475 5476 5477 5479 5480 5481 5482 5484 5487 5489 5492 5494 5497 5499 5501 5503 5504 5506 5507 5508 5511 5513 5516 5518 5520 5522 5523 5525 5526 5528 5532 5535 5537 5540 5542 5546 5548 5551 5555 5558 5561
5458 5459 5460 5461 5462 5463 5465 5466 5467 5469 5471 5474 5476 5478 5481 5483 5485 5487 5489 5491 5492 5494 5496 5498 5501 5503 5504 5505 5507 5509 5510 5513 5516 5518 5521 5523 5526 5529 5531 5534 5537 5540 5542
5444 5444 5445 5446 5447 5449 5450 5451 5452 5454 5457 5459 5461 5463 5465 5468 5470 5472 5474 5476 5478 5479 5480 5483 5485 5487 5489 5491 5492 5494 5496 5498 5501 5504 5506 5508 5510 5512 5515 5517 5519 5522 5524
5430 5430 5431 5431 5433 5434 5435 5436 5438 5440 5442 5445 5447 5449 5451 5453 5454 5456 5458 5460 5463 5464 5466 5468 5470 5472 5474 5476 5477 5479 5481 5483 5485 5488 5491 5492 5494 5496 5499 5502 5503 5505 5507
Wind_Speed
37 36 36 36 36 35 34 34 34 33 32 32 31 31 30 30 30 30 30 30 29 29 29 29 29 28 27 27 27 27 26 26 26 25 25 24 23 22 22 21 21 20 19
39 38 38 38 38 38 37 36 36 35 34 33 33 33 32 31 31 31 32 32 32 32 31 31 31 30 30 30 29 29 28 28 28 27 26 26 25 24 23 23 23 22 21
40 40 40 40 40 40 39 38 37 37 36 36 35 35 35 34 34 34 34 34 34 34 34 33 33 33 32 32 32 32 31 30 30 29 29 28 28 26 25 25 24 24 23
42 42 41 41 42 41 41 40 40 39 38 38 37 37 37 36 36 36 36 36 37 36 36 36 36 35 35 35 35 34 34 33 32 32 31 31 30 30 28 27 27 26 26
43 43 43 42 42 42 42 42 42 41 41 40 40 40 40 39 39 39 39 39 39 39 39 38 38 38 37 37 37 37 36 35 35 35 34 33 32 32 31 30 29 29 28
45 45 45 45 45 44 44 44 43 43 43 42 42 42 42 41 41 41 40 41 41 41 41 41 41 41 40 40 40 39 39 38 38 37 37 36 35 34 33 33 32 31 30
47 47 46 47 46 46 46 46 46 46 46 45 44 43 43 43 42 42 42 43 43 43 43 43 43 43 43 43 43 42 42 41 41 40 40 39 38 37 36 36 34 33 32
48 48 48 48 48 47 47 48 48 47 47 47 46 46 45 45 44 44 44 44 45 46 46 46 45 45 45 45 45 45 45 44 43 43 42 41 40 40 38 38 38 36 35
49 50 49 49 49 49 49 49 49 49 48 48 48 48 47 47 46 46 47 47 47 47 47 48 48 48 48 48 48 47 47 47 46 45 45 44 43 42 41 40 41 39 38
51 51 50 50 50 50 50 50 49 50 50 50 49 49 49 48 49 48 49 49 49 49 49 49 49 50 50 50 50 50 50 50 49 48 47 46 45 45 44 43 43 42 41
51 51 51 52 52 52 51 51 51 51 51 51 51 50 50 50 50 51 50 50 50 51 51 51 50 51 51 51 52 52 52 51 51 50 50 48 47 47 47 46 45 44 44
52 52 53 53 54 53 53 53 53 53 53 53 53 52 52 53 52 52 52 52 51 52 52 52 52 53 53 53 53 53 54 53 53 52 51 51 50 49 49 49 47 47 46
53 54 54 54 55 55 55 55 55 54 54 55 55 53 54 54 54 54 54 53 52 51 52 53 54 54 55 54 54 54 55 55 55 54 54 53 53 52 51 51 50 49 48
54 55 55 56 56 56 57 58 56 56 56 56 56 55 55 55 55 55 54 54 53 51 51 52 53 55 55 55 55 56 56 56 56 55 55 55 54 54 53 53 52 51 51
55 55 56 56 57 57 58 58 58 57 57 57 56 56 56 55 55 55 55 55 54 53 52 53 52 53 55 56 56 56 56 55 56 56 56 56 55 55 55 55 54 53 52
54 55 56 58 58 58 59 58 58 58 58 57 55 56 56 55 55 55 55 55 55 55 54 53 53 53 54 55 56 56 55 55 56 56 56 56 56 56 55 55 55 55 54
55 55 56 57 59 59 59 59 59 59 58 58 57 56 56 56 56 56 56 55 55 55 54 53 53 53 53 53 54 54 55 55 56 57 57 56 56 56 56 55 55 55 55
56 56 56 57 58 58 59 59 60 60 60 59 58 57 57 57 57 57 57 56 56 56 55 53 52 53 53 52 52 53 55 54 55 56 57 57 57 56 56 56 56 57 57
56 56 57 57 57 57 58 58 59 60 60 60 59 58 58 58 58 57 57 56 57 56 55 54 52 53 53 54 53 53 53 54 55 56 57 57 58 57 57 57 57 58 59
55 56 56 56 56 57 57 57 58 58 59 60 59 58 58 58 58 58 57 56 56 56 55 54 53 52 53 54 55 55 54 53 54 55 57 57 57 57 58 58 59 60 60
53 54 54 55 55 56 56 56 56 57 58 59 58 58 58 58 57 57 57 56 57 56 56 55 54 53 53 53 54 54 54 53 54 54 55 57 58 58 59 59 59 59 59
51 52 53 53 53 54 54 55 55 55 56 57 57 57 56 56 56 56 56 55 56 56 55 54 53 53 53 53 54 54 54 54 53 54 55 56 57 58 58 58 58 59 59
50 50 51 52 52 52 53 53 54 54 55 56 56 56 55 55 55 55 55 55 54 53 53 53 53 52 52 52 52 52 53 54 53 54 54 54 56 57 58 60 59 59 59
48 49 49 50 50 50 51 52 53 53 54 54 54 55 54 53 54 54 54 54 54 52 52 52 53 52 52 52 52 52 52 53 53 53 53 53 55 57 58 59 60 59 60
46 46 47 49 49 49 50 50 51 52 52 52 52 53 53 53 53 53 53 53 53 53 52 51 51 51 51 52 52 53 52 52 52 53 54 54 54 55 57 58 59 59 58
44 45 46 46 48 48 49 50 50 51 50 50 50 51 51 51 51 52 52 52 52 52 52 51 51 51 51 52 52 52 52 51 51 52 52 53 54 55 55 56 58 58 58
Wind_Direction
255 255 254 253 253 253 253 253 253 254 255 256 256 255 255 255 255 255 256 256 256 256 257 259 259 259 261 263 263 262 262 262 263 263 263 264 264 266 268 267 269 270 270
254 254 254 253 253 254 253 252 253 254 255 256 257 257 256 256 255 255 256 256 256 257 258 258 258 259 261 263 263 262 263 263 262 263 263 263 264 265 266 266 267 268 268
254 254 254 253 253 253 253 252 253 254 255 255 256 257 258 257 256 256 256 256 257 257 258 258 258 260 262 262 262 262 262 263 263 263 262 262 262 264 265 265 266 266 266
254 253 253 253 253 252 252 252 253 254 255 254 255 257 259 259 259 258 257 257 257 257 258 258 259 260 261 261 261 261 261 262 262 262 262 262 262 262 264 264 264 265 266
253 253 253 253 253 252 252 252 253 254 254 254 255 257 258 259 259 259 260 259 258 257 258 258 259 260 260 260 261 261 260 260 261 261 262 262 261 262 263 264 264 264 265
254 253 252 252 252 252 252 252 252 253 255 256 257 257 258 259 260 260 261 261 261 259 259 260 261 261 261 260 260 260 260 260 261 261 261 262 261 261 262 263 265 264 265
255 254 253 252 252 252 252 252 252 253 255 256 257 258 258 259 261 262 262 263 263 262 260 260 261 261 261 261 260 260 259 259 261 261 261 261 261 260 261 262 264 264 265
255 255 254 253 251 252 253 252 252 253 255 256 257 258 258 259 260 261 262 262 263 263 263 262 261 261 261 260 260 259 259 259 260 260 260 260 260 260 260 260 262 263 264
255 254 254 252 252 252 253 254 253 254 255 256 257 258 259 260 260 261 262 262 263 263 264 263 262 262 262 260 260 259 259 259 259 260 260 259 259 259 260 261 261 263 263
254 253 253 254 253 253 253 254 254 254 256 257 258 258 259 261 261 261 262 263 263 264 264 265 264 262 262 261 260 259 259 258 259 258 258 259 258 258 258 260 261 263 263
255 255 255 255 255 254 254 255 255 256 256 258 258 259 260 261 262 263 263 263 263 264 264 264 264 263 262 261 261 260 260 258 258 258 257 258 258 257 257 259 261 262 263
256 256 256 256 256 255 256 256 256 256 257 258 259 259 261 262 263 264 264 264 264 264 264 264 263 263 262 261 261 261 260 259 258 257 257 257 257 257 257 257 259 261 262
257 257 257 256 256 256 257 257 257 257 258 259 259 260 261 262 263 264 264 265 264 264 264 263 262 262 262 261 261 261 260 258 257 257 257 257 257 257 257 256 258 259 261
258 258 258 258 257 257 257 257 258 258 259 259 260 260 261 261 262 263 263 264 264 264 264 264 263 262 262 261 261 260 260 258 257 257 257 256 257 257 257 257 257 258 259
259 259 259 259 259 259 258 258 258 258 259 259 259 260 260 260 261 262 263 263 264 264 263 264 263 262 261 261 260 260 259 258 257 256 256 256 256 256 256 256 256 256 258
260 260 260 260 260 260 260 259 258 257 257 258 259 259 259 260 261 262 262 263 264 264 264 263 262 262 262 261 260 259 259 258 257 256 255 255 255 255 255 255 255 255 257
261 261 261 262 262 262 262 260 259 258 257 257 258 259 260 260 260 261 262 263 264 265 265 263 262 261 260 260 259 259 259 259 257 256 254 253 253 253 253 254 254 255 256
261 261 262 262 263 263 262 262 260 258 257 258 258 259 259 260 261 262 263 263 264 265 265 263 262 261 259 258 259 260 261 261 259 256 253 252 252 252 253 253 255 255 255
262 262 262 262 263 263 262 262 260 259 258 258 259 259 260 260 261 262 263 263 264 264 264 263 261 260 259 259 260 261 261 261 259 256 254 252 251 251 252 253 255 256 256
263 263 263 263 263 262 262 262 261 260 259 258 258 259 260 261 261 262 263 263 263 264 264 262 261 260 260 260 261 261 261 261 259 257 255 253 252 252 253 254 256 257 256
265 264 264 263 263 262 262 262 261 260 260 259 259 259 261 261 261 263 263 263 264 264 263 263 262 261 261 261 261 261 261 261 260 259 256 253 253 254 254 255 257 258 258
265 264 264 263 263 262 262 262 261 261 260 260 259 259 260 261 261 262 263 264 264 264 263 262 262 262 262 262 261 261 262 261 261 260 257 255 255 255 256 256 257 258 258
265 265 264 264 263 262 262 261 261 261 261 260 259 259 259 260 261 262 262 263 264 264 263 262 261 262 263 263 262 261 261 261 261 260 258 258 257 256 257 257 257 257 258
266 266 266 265 263 262 262 261 261 261 261 261 260 259 259 260 261 262 261 261 262 262 262 262 262 262 262 262 262 261 261 262 260 259 259 259 258 258 259 258 257 257 258
267 267 267 265 264 263 262 262 262 261 261 261 260 259 259 259 261 261 261 261 262 261 260 261 261 261 261 261 262 261 261 261 260 259 260 260 260 260 260 259 258 258 258
267 267 267 266 264 263 263 262 262 261 261 261 260 260 260 260 260 261 261 262 262 260 259 259 259 260 260 261 261 261 261 261 259 260 260 261 261 261 260 260 259 258 258